Regional Weather Roundup
Issued by NWS

Home | Current Version | Previous Version | Text Only | Print | Product List | Glossary On
Versions: 1 2 3 4 5 6 7 8 9 10 11 12 13 14 15 16 17 18 19 20 21 22 23 24 25 26 27 28 29 30 31 32 33 34 35 36 37 38 39 40 41 42 43 44 45 46 47 48 49 50
000
ASUS44 KLIX 272310
RWRLA
LOUISIANA WEATHER ROUNDUP
NATIONAL WEATHER SERVICE NEW ORLEANS LA
500 PM CST TUE JAN 27 2015

NOTE: "FAIR" INDICATES FEW OR NO CLOUDS BELOW 12,000 FEET WITH NO
      SIGNIFICANT WEATHER AND/OR OBSTRUCTIONS TO VISIBILITY.
      SKY/WX - SKY CONDITION AND SIGNIFICANT WEATHER.
      TMP - AIR TEMPERATURE.    DP   - DEWPOINT TEMPERATURE.
      RH  - RELATIVE HUMIDITY.  PRES - PRESSURE.
      HX  - HEAT INDEX.         WCI  - WIND CHILL INDEX.

*  THESE STATIONS ARE NOT NWS OR FAA STATIONS AND ARE NOT UNDER
   NWS QUALITY CONTROL.

LAZ040-048-061>063-065-066-069-280000-
SOUTHEAST LOUISIANA

CITY           SKY/WX    TMP DP  RH WIND       PRES   REMARKS
N.O. AUDUBON     N/A     70  41  35 MISG        N/A
N.O. INTL ARPT CLEAR     71  38  29 NW8       30.08S
N.O. LAKEFRONT CLEAR     64  46  52 W9        30.09R
N.O. DOWNTOWN* FAIR     N/A N/A N/A NW6       30.08S
SLIDELL        CLEAR     70  41  34 SW3       30.07R
BATON ROUGE    CLEAR     72  36  26 W7        30.09S
BOOTHVILLE     CLEAR     63  51  65 W6        30.09S
BELLE CHASSE   CLEAR     72  34  24 VRB7      30.08R
BOGALUSA*        N/A     71  32  23 NW7       30.09R
GALLIANO*      CLEAR     69  47  45 MISG      30.10R
NEW ROADS*     FAIR      69  36  29 NW8       30.11R
GONZALES*      FAIR      73  35  25 N7        30.09R
HAMMOND*       CLEAR     72  30  21 NW6       30.10R
HOUMA*         CLEAR     73  39  29 W7        30.09R
PORT FOURCHON* CLEAR     64  50  59 SW7       30.13R

$$

LAZ041-044-053-054-280000-
SOUTHWEST LOUISIANA

CITY           SKY/WX    TMP DP  RH WIND       PRES   REMARKS
LAKE CHARLES   CLEAR     73  45  36 SE6       30.10S
LAFAYETTE      CLEAR     71  37  28 NE9       30.11R
PATTERSON      CLEAR     73  41  31 CALM      30.11R
SALT POINT       N/A     59  54  83 VRB3      30.10R
NEW IBERIA     CLEAR     72  39  30 N8        30.11R
CHENAULT AIRPK NOT AVBL

$$

LAZ027-028-280000-
CENTRAL LOUISIANA

CITY           SKY/WX    TMP DP  RH WIND       PRES   REMARKS
FORT POLK      CLEAR     73  39  29 NE2       30.10S
ALEXANDRIA INT CLEAR     71  44  37 S5        30.10R
ALEXANDRIA     CLEAR     75  38  26 CALM      30.11S

$$

LAZ001-002-280000-
NORTHWEST LOUISIANA

CITY           SKY/WX    TMP DP  RH WIND       PRES   REMARKS
SHREVEPORT     CLEAR     74  35  24 E3        30.10F
BARKSDALE AFB  CLEAR     72  34  25 NW3       30.11S
DTN SHREVEPORT CLEAR     72  32  23 CALM      30.11S

$$

LAZ014-016-280000-
NORTHEAST LOUISIANA

CITY           SKY/WX    TMP DP  RH WIND       PRES   REMARKS
MONROE         CLEAR     68  37  32 N6        30.13R
TALLULAH       CLEAR     64  37  36 NW8       30.12S

$$



USA.gov is the U.S. government's official web portal to all federal, state and local government web resources and services.